UAL1108 KIAD-KCHS

Flight info

Callsign UAL1108
Flight time 1h 9m
Altitude 36000
Route JCOBY4 SCOOB DFENC Q109 JOHAR AMYLU AMYLU3
Aircraft B739/M-SDE2E3FGHIRWXY/LB1

Departure

Time 2026-04-24 00:20
Airport Washington Dulles International Airport (KIAD)

Arrival

Time 2026-04-24 01:29
Airport Charleston International Airport (KCHS)
Time Latitude Longitude Altitude Speed Heading
2026-04-23 23:48 38.94482 -77.44745 291 ft 0 kts 38°
2026-04-24 00:08 38.94481 -77.44745 297 ft 1 kts 38°
2026-04-24 00:09 38.94470 -77.44756 291 ft 3 kts 29°
2026-04-24 00:09 38.94453 -77.44766 293 ft 3 kts
2026-04-24 00:09 38.94434 -77.44765 292 ft 3 kts 335°
2026-04-24 00:09 38.94419 -77.44751 294 ft 3 kts 298°
2026-04-24 00:10 38.94414 -77.44733 295 ft 1 kts 270°
2026-04-24 00:10 38.94414 -77.44727 291 ft 0 kts 270°
2026-04-24 00:12 38.94414 -77.44751 291 ft 6 kts 271°
2026-04-24 00:12 38.94415 -77.44818 294 ft 10 kts 271°
2026-04-24 00:12 38.94419 -77.44953 291 ft 20 kts 273°
2026-04-24 00:12 38.94420 -77.45147 295 ft 22 kts 269°
2026-04-24 00:13 38.94419 -77.45336 291 ft 21 kts 270°
2026-04-24 00:13 38.94420 -77.45520 295 ft 19 kts 271°
2026-04-24 00:13 38.94393 -77.45608 295 ft 9 kts 199°
2026-04-24 00:13 38.94331 -77.45612 294 ft 10 kts 179°
2026-04-24 00:14 38.94238 -77.45614 293 ft 18 kts 180°
2026-04-24 00:14 38.94101 -77.45615 294 ft 20 kts 181°
2026-04-24 00:14 38.93965 -77.45618 294 ft 19 kts 180°
2026-04-24 00:14 38.93833 -77.45619 294 ft 19 kts 181°
2026-04-24 00:15 38.93719 -77.45629 295 ft 7 kts 167°
2026-04-24 00:15 38.93678 -77.45579 294 ft 10 kts 130°
2026-04-24 00:15 38.93620 -77.45504 292 ft 13 kts 156°
2026-04-24 00:15 38.93532 -77.45522 295 ft 13 kts 200°
2026-04-24 00:16 38.93472 -77.45551 291 ft 0 kts 201°
2026-04-24 00:17 38.93470 -77.45552 291 ft 1 kts 201°
2026-04-24 00:17 38.93469 -77.45552 291 ft 0 kts 201°
2026-04-24 00:18 38.93455 -77.45560 291 ft 6 kts 200°
2026-04-24 00:18 38.93395 -77.45611 291 ft 15 kts 240°
2026-04-24 00:19 38.93417 -77.45784 295 ft 38 kts 290°
2026-04-24 00:19 38.93605 -77.46417 300 ft 111 kts 290°
2026-04-24 00:19 38.93950 -77.47598 310 ft 168 kts 291°
2026-04-24 00:19 38.94376 -77.49083 777 ft 184 kts 290°
2026-04-24 00:20 38.94927 -77.50638 1369 ft 198 kts 308°
2026-04-24 00:20 38.95952 -77.51833 2094 ft 203 kts 320°
2026-04-24 00:20 38.97071 -77.53037 2346 ft 224 kts 319°
2026-04-24 00:20 38.98315 -77.54372 2671 ft 238 kts 320°
2026-04-24 00:21 38.99706 -77.55525 3260 ft 241 kts 344°
2026-04-24 00:21 39.01405 -77.55494 3714 ft 259 kts 17°
2026-04-24 00:21 39.02975 -77.54264 4269 ft 272 kts 44°
2026-04-24 00:21 39.04190 -77.52371 4884 ft 277 kts 52°
2026-04-24 00:22 39.05291 -77.50329 4985 ft 276 kts 54°
2026-04-24 00:22 39.06366 -77.48281 5018 ft 277 kts 54°
2026-04-24 00:22 39.07453 -77.46224 5315 ft 284 kts 53°
2026-04-24 00:22 39.08576 -77.44122 6104 ft 285 kts 53°
2026-04-24 00:23 39.09709 -77.42020 6887 ft 287 kts 52°
2026-04-24 00:23 39.10863 -77.39894 7573 ft 292 kts 52°
2026-04-24 00:23 39.12035 -77.37743 8291 ft 295 kts 52°
2026-04-24 00:23 39.13223 -77.35564 8977 ft 299 kts 52°
2026-04-24 00:24 39.14426 -77.33361 9680 ft 302 kts 52°
2026-04-24 00:24 39.15424 -77.30960 10369 ft 311 kts 71°
2026-04-24 00:24 39.15629 -77.28127 10558 ft 338 kts 96°
2026-04-24 00:24 39.15104 -77.25078 10748 ft 359 kts 103°
2026-04-24 00:25 39.14477 -77.21884 10930 ft 376 kts 102°
2026-04-24 00:25 39.13689 -77.18620 11356 ft 388 kts 112°
2026-04-24 00:25 39.12433 -77.15539 12075 ft 390 kts 121°
2026-04-24 00:25 39.10804 -77.12738 12691 ft 394 kts 129°
2026-04-24 00:26 39.09005 -77.10031 13249 ft 400 kts 130°
2026-04-24 00:26 39.07165 -77.07320 13836 ft 404 kts 130°
2026-04-24 00:26 39.05306 -77.04574 14459 ft 408 kts 130°
2026-04-24 00:26 39.03441 -77.01788 15085 ft 413 kts 130°
2026-04-24 00:27 39.01563 -76.98958 15721 ft 416 kts 130°
2026-04-24 00:27 38.99680 -76.96110 16312 ft 421 kts 130°
2026-04-24 00:27 38.97774 -76.93232 16883 ft 425 kts 130°
2026-04-24 00:27 38.95698 -76.90501 17431 ft 429 kts 142°
2026-04-24 00:28 38.93201 -76.88405 17968 ft 429 kts 155°
2026-04-24 00:28 38.90465 -76.87023 18519 ft 428 kts 168°
2026-04-24 00:28 38.87568 -76.86098 19064 ft 430 kts 170°
2026-04-24 00:28 38.84633 -76.85211 19602 ft 434 kts 170°
2026-04-24 00:29 38.81681 -76.84319 20133 ft 438 kts 170°
2026-04-24 00:29 38.78709 -76.83407 20681 ft 441 kts 169°
2026-04-24 00:29 38.75718 -76.82473 21174 ft 444 kts 169°
2026-04-24 00:29 38.72703 -76.81520 21625 ft 447 kts 169°
2026-04-24 00:30 38.69671 -76.80554 22079 ft 450 kts 169°
2026-04-24 00:30 38.66622 -76.79579 22539 ft 453 kts 169°
2026-04-24 00:30 38.63556 -76.78598 22992 ft 456 kts 169°
2026-04-24 00:30 38.60467 -76.77612 23427 ft 459 kts 169°
2026-04-24 00:31 38.57354 -76.76620 23822 ft 462 kts 169°
2026-04-24 00:31 38.54223 -76.75623 24235 ft 465 kts 169°
2026-04-24 00:31 38.51078 -76.74622 24664 ft 467 kts 169°
2026-04-24 00:31 38.47912 -76.73615 25072 ft 470 kts 169°
2026-04-24 00:32 38.44730 -76.72605 25482 ft 472 kts 169°
2026-04-24 00:32 38.41579 -76.71610 25821 ft 475 kts 169°
2026-04-24 00:32 38.38324 -76.70802 26165 ft 476 kts 175°
2026-04-24 00:32 38.35029 -76.70251 26548 ft 478 kts 176°
2026-04-24 00:33 38.31708 -76.69786 26910 ft 479 kts 177°
2026-04-24 00:33 38.28385 -76.69326 27227 ft 482 kts 177°
2026-04-24 00:33 38.25045 -76.68835 27544 ft 485 kts 176°
2026-04-24 00:33 38.21680 -76.68311 27860 ft 488 kts 176°
2026-04-24 00:34 38.18300 -76.67765 28178 ft 491 kts 176°
2026-04-24 00:34 38.14895 -76.67211 28505 ft 493 kts 175°
2026-04-24 00:34 38.11491 -76.66661 28851 ft 494 kts 175°
2026-04-24 00:34 38.08065 -76.66188 29162 ft 496 kts 178°
2026-04-24 00:35 38.04617 -76.65898 29480 ft 496 kts 180°
2026-04-24 00:35 38.01165 -76.65697 29883 ft 496 kts 181°
2026-04-24 00:35 37.97730 -76.65520 30363 ft 493 kts 181°
2026-04-24 00:35 37.94304 -76.65334 30872 ft 490 kts 180°
2026-04-24 00:36 37.90952 -76.65135 31320 ft 488 kts 180°
2026-04-24 00:36 37.87560 -76.64918 31656 ft 488 kts 180°
2026-04-24 00:36 37.84162 -76.64693 31954 ft 489 kts 180°
2026-04-24 00:36 37.80767 -76.64461 32287 ft 489 kts 181°
2026-04-24 00:37 37.77376 -76.64230 32658 ft 487 kts 181°
2026-04-24 00:37 37.73988 -76.63999 33026 ft 486 kts 181°
2026-04-24 00:37 37.70613 -76.63770 33374 ft 485 kts 181°
2026-04-24 00:37 37.67240 -76.63543 33699 ft 484 kts 181°
2026-04-24 00:38 37.63876 -76.63318 34024 ft 483 kts 181°
2026-04-24 00:38 37.60516 -76.63128 34317 ft 482 kts 185°
2026-04-24 00:38 37.57189 -76.63396 34574 ft 476 kts 195°
2026-04-24 00:38 37.53962 -76.64212 34847 ft 473 kts 198°
2026-04-24 00:39 37.50785 -76.65091 35072 ft 473 kts 198°
2026-04-24 00:39 37.47565 -76.65989 35324 ft 473 kts 198°
2026-04-24 00:39 37.44351 -76.66875 35587 ft 473 kts 197°
2026-04-24 00:39 37.41130 -76.67745 35808 ft 473 kts 197°
2026-04-24 00:40 37.37906 -76.68604 35970 ft 474 kts 197°
2026-04-24 00:40 37.34675 -76.69457 35947 ft 475 kts 197°
2026-04-24 00:40 37.28218 -76.71139 35947 ft 473 kts 197°
2026-04-24 00:41 37.21783 -76.72809 35954 ft 471 kts 197°
2026-04-24 00:41 37.15370 -76.74475 35952 ft 469 kts 197°
2026-04-24 00:42 37.09021 -76.76123 35957 ft 469 kts 197°
2026-04-24 00:42 37.02625 -76.77781 35955 ft 469 kts 197°
2026-04-24 00:43 36.96230 -76.79438 35957 ft 470 kts 197°
2026-04-24 00:43 36.89815 -76.81097 35960 ft 471 kts 196°
2026-04-24 00:44 36.83390 -76.82753 35966 ft 472 kts 196°
2026-04-24 00:44 36.76970 -76.84406 35962 ft 473 kts 196°
2026-04-24 00:45 36.70514 -76.86064 35965 ft 474 kts 196°
2026-04-24 00:45 36.64046 -76.87722 35962 ft 474 kts 196°
2026-04-24 00:46 36.58675 -76.89095 35964 ft 474 kts 196°
2026-04-24 00:46 36.52208 -76.90749 35961 ft 474 kts 196°
2026-04-24 00:47 36.44698 -76.92667 35960 ft 474 kts 196°
2026-04-24 00:47 36.39324 -76.94036 35967 ft 473 kts 195°
2026-04-24 00:48 36.32878 -76.95676 35972 ft 472 kts 195°
2026-04-24 00:48 36.26506 -76.97295 35969 ft 471 kts 195°
2026-04-24 00:49 36.20083 -76.98922 35974 ft 470 kts 195°
2026-04-24 00:49 36.13704 -77.00536 35971 ft 470 kts 195°
2026-04-24 00:50 36.07303 -77.02152 35972 ft 469 kts 195°
2026-04-24 00:50 36.00902 -77.03764 35973 ft 469 kts 195°
2026-04-24 00:51 35.94542 -77.05507 35974 ft 465 kts 202°
2026-04-24 00:51 35.88812 -77.09011 35979 ft 456 kts 220°
2026-04-24 00:52 35.83864 -77.13869 35975 ft 454 kts 223°
2026-04-24 00:52 35.78988 -77.18776 35985 ft 455 kts 223°
2026-04-24 00:53 35.74060 -77.23667 35978 ft 455 kts 223°
2026-04-24 00:53 35.69103 -77.28536 35983 ft 456 kts 222°
2026-04-24 00:54 35.64166 -77.33368 35979 ft 456 kts 222°
2026-04-24 00:54 35.59192 -77.38225 35972 ft 457 kts 222°
2026-04-24 00:55 35.54207 -77.43085 35974 ft 457 kts 222°
2026-04-24 00:55 35.49226 -77.47941 35973 ft 457 kts 222°
2026-04-24 00:56 35.44244 -77.52786 35983 ft 457 kts 222°
2026-04-24 00:56 35.39296 -77.57590 35990 ft 456 kts 222°
2026-04-24 00:57 35.34309 -77.62425 35987 ft 455 kts 222°
2026-04-24 00:58 35.26850 -77.69640 35994 ft 455 kts 222°
2026-04-24 00:58 35.21881 -77.74438 35991 ft 455 kts 222°
2026-04-24 00:59 35.16898 -77.79241 35995 ft 456 kts 221°
2026-04-24 00:59 35.11950 -77.84004 35992 ft 456 kts 221°
2026-04-24 01:00 35.06964 -77.88795 36000 ft 456 kts 221°
2026-04-24 01:00 35.01971 -77.93584 36001 ft 456 kts 221°
2026-04-24 01:01 34.96974 -77.98367 36001 ft 456 kts 221°
2026-04-24 01:01 34.91970 -78.03151 35997 ft 457 kts 221°
2026-04-24 01:02 34.86967 -78.07925 35999 ft 457 kts 221°
2026-04-24 01:02 34.81972 -78.12694 36010 ft 456 kts 221°
2026-04-24 01:03 34.77011 -78.17444 36014 ft 456 kts 221°
2026-04-24 01:03 34.72021 -78.22218 36020 ft 456 kts 221°
2026-04-24 01:03 34.69519 -78.24607 35858 ft 459 kts 221°
2026-04-24 01:04 34.67000 -78.27008 35608 ft 459 kts 221°
2026-04-24 01:04 34.64492 -78.29395 35360 ft 457 kts 221°
2026-04-24 01:04 34.61991 -78.31774 35111 ft 457 kts 221°
2026-04-24 01:04 34.59486 -78.34155 34869 ft 458 kts 221°
2026-04-24 01:05 34.56978 -78.36538 34623 ft 458 kts 221°
2026-04-24 01:05 34.54463 -78.38925 34377 ft 459 kts 221°
2026-04-24 01:05 34.51976 -78.41284 34133 ft 459 kts 221°
2026-04-24 01:05 34.49454 -78.43673 33894 ft 460 kts 220°
2026-04-24 01:06 34.46934 -78.46059 33641 ft 460 kts 220°
2026-04-24 01:06 34.44409 -78.48447 33394 ft 461 kts 220°
2026-04-24 01:06 34.41876 -78.50841 33148 ft 461 kts 220°
2026-04-24 01:06 34.39342 -78.53233 32899 ft 461 kts 220°
2026-04-24 01:07 34.36808 -78.55626 32652 ft 462 kts 220°
2026-04-24 01:07 34.34271 -78.58019 32409 ft 462 kts 220°
2026-04-24 01:07 34.31782 -78.60475 32155 ft 462 kts 225°
2026-04-24 01:07 34.29460 -78.63152 31911 ft 461 kts 227°
2026-04-24 01:08 34.27198 -78.65910 31661 ft 461 kts 228°
2026-04-24 01:08 34.24958 -78.68684 31414 ft 462 kts 228°
2026-04-24 01:08 34.22706 -78.71463 31168 ft 462 kts 228°
2026-04-24 01:08 34.20444 -78.74229 30917 ft 462 kts 227°
2026-04-24 01:09 34.18169 -78.76982 30672 ft 463 kts 227°
2026-04-24 01:09 34.15894 -78.79714 30422 ft 462 kts 227°
2026-04-24 01:09 34.13614 -78.82440 30173 ft 460 kts 227°
2026-04-24 01:09 34.11344 -78.85150 29752 ft 457 kts 227°
2026-04-24 01:10 34.09123 -78.87799 29175 ft 451 kts 227°
2026-04-24 01:10 34.06899 -78.90452 28564 ft 447 kts 227°
2026-04-24 01:10 34.04704 -78.93066 28201 ft 440 kts 227°
2026-04-24 01:10 34.02547 -78.95635 28086 ft 430 kts 227°
2026-04-24 01:11 34.00456 -78.98123 28031 ft 413 kts 227°
2026-04-24 01:11 33.98450 -79.00508 28020 ft 397 kts 227°
2026-04-24 01:11 33.96523 -79.02799 28027 ft 381 kts 227°
2026-04-24 01:11 33.94674 -79.04998 28026 ft 366 kts 227°
2026-04-24 01:12 33.92899 -79.07105 28028 ft 351 kts 227°
2026-04-24 01:12 33.91194 -79.09129 28026 ft 337 kts 227°
2026-04-24 01:12 33.89563 -79.11064 28022 ft 322 kts 227°
2026-04-24 01:13 33.86433 -79.14777 28057 ft 319 kts 227°
2026-04-24 01:13 33.83192 -79.18617 27938 ft 327 kts 227°
2026-04-24 01:13 33.81605 -79.20492 27540 ft 323 kts 227°
2026-04-24 01:14 33.80013 -79.22374 27062 ft 319 kts 227°
2026-04-24 01:14 33.78403 -79.24203 26539 ft 318 kts 220°
2026-04-24 01:14 33.76575 -79.25702 25966 ft 319 kts 214°
2026-04-24 01:14 33.74641 -79.27124 24889 ft 334 kts 213°
2026-04-24 01:15 33.72581 -79.28620 23494 ft 357 kts 213°
2026-04-24 01:15 33.70397 -79.30216 22097 ft 375 kts 212°
2026-04-24 01:15 33.68126 -79.31893 20836 ft 392 kts 212°
2026-04-24 01:15 33.65820 -79.33608 20118 ft 394 kts 212°
2026-04-24 01:16 33.63510 -79.35336 19656 ft 386 kts 212°
2026-04-24 01:16 33.61257 -79.37027 19037 ft 379 kts 212°
2026-04-24 01:16 33.59026 -79.38703 18294 ft 376 kts 212°
2026-04-24 01:16 33.56811 -79.40366 17557 ft 373 kts 212°
2026-04-24 01:17 33.54622 -79.42009 16852 ft 369 kts 212°
2026-04-24 01:17 33.52453 -79.43637 16132 ft 366 kts 212°
2026-04-24 01:17 33.50301 -79.45251 15396 ft 364 kts 212°
2026-04-24 01:17 33.48187 -79.46836 14708 ft 361 kts 213°
2026-04-24 01:18 33.46057 -79.48438 14019 ft 364 kts 213°
2026-04-24 01:18 33.43905 -79.50056 13406 ft 364 kts 213°
2026-04-24 01:18 33.41758 -79.51666 12805 ft 364 kts 213°
2026-04-24 01:18 33.39608 -79.53279 12209 ft 364 kts 213°
2026-04-24 01:19 33.37475 -79.54878 11608 ft 359 kts 213°
2026-04-24 01:19 33.35380 -79.56448 11033 ft 351 kts 213°
2026-04-24 01:19 33.33339 -79.57987 10598 ft 340 kts 214°
2026-04-24 01:19 33.31365 -79.59487 10184 ft 330 kts 214°
2026-04-24 01:20 33.29478 -79.60921 9895 ft 317 kts 214°
2026-04-24 01:20 33.27683 -79.62283 9892 ft 295 kts 214°
2026-04-24 01:20 33.26008 -79.63554 9758 ft 278 kts 214°
2026-04-24 01:20 33.24385 -79.64785 9318 ft 275 kts 214°
2026-04-24 01:21 33.22775 -79.66006 8826 ft 273 kts 214°
2026-04-24 01:21 33.21207 -79.67273 8355 ft 270 kts 224°
2026-04-24 01:21 33.20115 -79.69063 7884 ft 265 kts 242°
2026-04-24 01:21 33.19221 -79.70971 7489 ft 260 kts 242°
2026-04-24 01:22 33.18344 -79.72832 7152 ft 254 kts 242°
2026-04-24 01:22 33.17480 -79.74653 6861 ft 250 kts 242°
2026-04-24 01:22 33.16636 -79.76439 6557 ft 249 kts 242°
2026-04-24 01:22 33.15782 -79.78234 6255 ft 248 kts 241°
2026-04-24 01:23 33.14925 -79.80028 5923 ft 249 kts 241°
2026-04-24 01:23 33.14070 -79.81810 5679 ft 246 kts 241°
2026-04-24 01:23 33.13226 -79.83572 5418 ft 243 kts 241°
2026-04-24 01:23 33.12389 -79.85315 5182 ft 241 kts 240°
2026-04-24 01:24 33.11563 -79.87034 4924 ft 238 kts 241°
2026-04-24 01:24 33.10742 -79.88744 4671 ft 236 kts 240°
2026-04-24 01:24 33.09933 -79.90429 4491 ft 229 kts 240°
2026-04-24 01:24 33.09163 -79.92032 4417 ft 220 kts 240°
2026-04-24 01:25 33.08349 -79.93586 4065 ft 222 kts 227°
2026-04-24 01:25 33.07081 -79.94561 3800 ft 220 kts 205°
2026-04-24 01:25 33.05676 -79.95296 3373 ft 221 kts 207°
2026-04-24 01:25 33.04305 -79.96055 3088 ft 214 kts 206°
2026-04-24 01:26 33.02971 -79.96772 2786 ft 207 kts 206°
2026-04-24 01:26 33.01681 -79.97464 2508 ft 200 kts 205°
2026-04-24 01:26 33.00449 -79.98126 2247 ft 188 kts 205°
2026-04-24 01:26 32.99294 -79.98744 2007 ft 176 kts 204°
2026-04-24 01:27 32.98203 -79.99333 1798 ft 168 kts 205°
2026-04-24 01:27 32.97163 -79.99891 1617 ft 157 kts 205°
2026-04-24 01:27 32.96194 -80.00411 1368 ft 148 kts 205°
2026-04-24 01:27 32.95276 -80.00903 1175 ft 142 kts 204°
2026-04-24 01:28 32.94370 -80.01391 1007 ft 145 kts 205°
2026-04-24 01:28 32.93439 -80.01891 803 ft 149 kts 204°
2026-04-24 01:28 32.92495 -80.02394 620 ft 148 kts 204°
2026-04-24 01:28 32.91560 -80.02900 398 ft 147 kts 204°
2026-04-24 01:29 32.90650 -80.03397 175 ft 145 kts 204°
2026-04-24 01:29 32.89752 -80.03885 51 ft 134 kts 202°
2026-04-24 01:29 32.89095 -80.04234 46 ft 72 kts 205°
2026-04-24 01:29 32.88751 -80.04418 42 ft 49 kts 205°
2026-04-24 01:30 32.88528 -80.04531 41 ft 19 kts 180°
2026-04-24 01:30 32.88485 -80.04410 42 ft 18 kts 73°
2026-04-24 01:30 32.88550 -80.04288 41 ft 17 kts 57°
2026-04-24 01:30 32.88622 -80.04180 41 ft 17 kts 47°
2026-04-24 01:31 32.88649 -80.04144 41 ft 0 kts 49°
2026-04-24 01:31 32.88656 -80.04134 38 ft 6 kts 51°
2026-04-24 01:31 32.88669 -80.04047 39 ft 16 kts 118°
2026-04-24 01:31 32.88647 -80.03928 37 ft 17 kts 44°
2026-04-24 01:32 32.88715 -80.03843 37 ft 13 kts 56°
2026-04-24 01:32 32.88742 -80.03753 37 ft 11 kts 85°
2026-04-24 01:32 32.88737 -80.03670 35 ft 10 kts 134°
2026-04-24 01:32 32.88668 -80.03660 37 ft 10 kts 186°
2026-04-24 01:33 32.88643 -80.03663 37 ft 0 kts 186°
2026-04-24 01:33 32.88642 -80.03663 37 ft 0 kts 187°
2026-04-24 01:33 32.88634 -80.03665 37 ft 3 kts 188°
2026-04-24 01:33 32.88615 -80.03668 37 ft 5 kts 186°
2026-04-24 01:34 32.88598 -80.03675 37 ft 3 kts 212°
2026-04-24 01:34 32.88582 -80.03707 36 ft 5 kts 258°
2026-04-24 01:34 32.88579 -80.03725 34 ft 0 kts 257°